INMARSAT 3-F2 1 24307U 96053A 10066.10935045 -.00000138 +00000-0 +10000-3 0 01347 2 24307 000.1111 307.7031 0005291 032.6458 208.1712 01.00271967049421 INMARSAT 3-F3 1 24674U 96070A 10066.45645662 +.00000024 +00000-0 +10000-3 0 02067 2 24674 000.1159 303.2502 0005101 043.8104 160.3693 01.00273193048380 INMARSAT 3-F4 1 24819U 97027A 10066.10836819 -.00000300 +00000-0 +10000-3 0 09963 2 24819 000.2894 068.9677 0005121 277.5200 163.2463 01.00272781046805 INMARSAT 3-F5 1 25153U 98006B 10067.88459176 +.00000125 +00000-0 +10000-3 0 09881 2 25153 000.4924 358.0475 0002722 002.1415 149.4454 01.00270662044323 ARTEMIS 1 26863U 01029A 10065.97313017 +.00000110 +00000-0 +10000-3 0 08513 2 26863 008.0801 065.4914 0005098 307.1104 163.6492 01.00272420032780 MTSAT-1R 1 28622U 05006A 10063.51547056 -.00000295 00000-0 10000-3 0 3371 2 28622 000.0416 028.3585 0002025 157.4286 301.9863 01.00272093 18368 ANIK F1-R 1 28868U 05036A 10067.22800258 -.00000089 +00000-0 +00000-0 0 07599 2 28868 000.0008 001.5149 0002083 047.9954 091.0322 01.00271738016545 GALAXY 15 1 28884U 05041A 10066.45780326 +.00000064 +00000-0 +10000-3 0 07776 2 28884 000.0378 286.5021 0002618 068.5499 201.7849 01.00272908016122 MTSAT-2 1 28937U 06004A 10066.45556942 -.00000258 +00000-0 +10000-3 0 07125 2 28937 000.0457 081.1653 0003541 262.0516 130.8484 01.00270179014871